Location: Oshawa
(43.9000°N, 78.8670°W)
Time: 10:35:11
(UTC-04:00)

Cosmos 839 Rocket - Visible Passes

Search period start: 21 July 2017 00:00
Search period end: 31 July 2017 00:00
Orbit: 967 x 2085 km, 65.9° (Epoch: 20 July)

Date Brightness Start Highest point End Pass type
(mag) Time Alt. Az. Time Alt. Az. Time Alt. Az.
21 Jul 5.7 01:17:37 18° ESE 01:17:44 18° ESE 01:21:39 10° ENE visible
21 Jul 4.0 03:14:13 35° SW 03:16:58 73° NW 03:23:11 10° NNE visible
21 Jul 6.0 05:14:12 10° WNW 05:18:15 18° NNW 05:22:24 10° NNE visible
22 Jul 4.0 02:33:26 50° S 02:35:05 74° ESE 02:41:14 10° NE visible
22 Jul 5.6 04:30:50 10° W 04:35:45 24° NW 04:40:45 10° NNE visible
23 Jul 4.4 01:52:37 45° SE 01:53:18 46° ESE 01:59:08 10° NE visible
23 Jul 5.2 03:49:13 16° W 03:53:25 33° NW 03:59:03 10° NNE visible
24 Jul 5.1 01:11:47 28° ESE 01:11:47 28° ESE 01:16:45 10° NE visible
24 Jul 4.6 03:08:23 29° WSW 03:11:14 49° NW 03:17:16 10° NNE visible
24 Jul 6.2 05:10:03 10° NW 05:13:09 14° NNW 05:16:22 10° N visible
25 Jul 5.7 00:30:55 17° E 00:30:55 17° E 00:33:50 10° ENE visible
25 Jul 4.0 02:27:31 49° SW 02:29:14 74° NW 02:35:27 10° NNE visible
25 Jul 6.1 04:26:24 10° WNW 04:30:29 18° NNW 04:34:42 10° NNE visible
26 Jul 3.9 01:46:37 65° SSE 01:47:20 72° ESE 01:53:30 10° NE visible
26 Jul 5.7 03:43:13 11° W 03:47:59 24° NW 03:53:02 10° NNE visible
27 Jul 4.4 01:05:42 45° ESE 01:05:42 45° ESE 01:11:23 10° NE visible
27 Jul 5.2 03:02:17 20° W 03:05:39 34° NW 03:11:20 10° NNE visible
27 Jul 6.4 05:06:05 10° NNW 05:08:11 12° NNW 05:10:23 10° N visible
28 Jul 5.2 00:24:45 27° E 00:24:45 27° E 00:28:59 10° NE visible
28 Jul 4.6 02:21:20 35° W 02:23:30 49° NW 02:29:33 10° NNE visible
28 Jul 6.3 04:22:13 10° NW 04:25:24 14° NNW 04:28:41 10° N visible
28 Jul 5.8 23:43:47 15° E 23:43:47 15° E 23:46:01 10° ENE visible
29 Jul 4.0 01:40:21 60° WSW 01:41:29 75° NW 01:47:43 10° NNE visible
29 Jul 6.1 03:38:35 10° WNW 03:42:44 18° NNW 03:47:01 10° NNE visible
30 Jul 3.8 00:59:21 70° SE 00:59:35 71° ESE 01:05:45 10° NE visible
30 Jul 5.7 02:55:56 12° W 03:00:15 24° NW 03:05:20 10° NNE visible
30 Jul 6.7 05:02:02 10° NNW 05:03:20 11° N 05:04:40 10° N visible
